Location: Grambois
(43.7619°N, 5.5873°E)
Time: 13:04:44
(UTC+00:00)

BREEZE-M DEB (TANK) - Pass Details

Date: 05 October 2020
Orbit: 333 x 12040 km, 49.7° (Epoch: 26 October)

Event Time Altitude Azimuth Distance (km) Brightness Sun altitude
Rises 00:30:11 0° 151° (SSE) 14,351 9.0 -48.6°
Reaches altitude 10° 00:47:47 10° 141° (SE) 14,948 9.1 -47.1°
Maximum altitude 01:54:39 30° 100° (E) 13,266 9.2 -39.2°
Drops below altitude 10° 02:34:56 10° 59° (ENE) 10,300 9.4 -33.2°
Sets 02:42:14 0° 51° (NE) 10,011 9.6 -32.0°
